Weather History for Dublin, VA

Change the Weather History Date:

Wednesday, January 9, 2013

  Actual Average (KBCB) Record (KBCB)
Temperature  
Mean Temperature 42 °F 31 °F  
Max Temperature 55 °F 41 °F 66 °F (1965)
Min Temperature 30 °F 21 °F -10 °F (1970)
Degree Days  
Heating Degree Days 22 34  
Month to date heating degree days 306  
Since 1 July heating degree days 2453  
Cooling Degree Days 0 0  
Month to date cooling degree days 0  
Year to date cooling degree days 0  
Moisture  
Dew Point 39 °F    
Average Humidity 84    
Maximum Humidity 100    
Minimum Humidity 62    
Precipitation  
Precipitation 0.00 in 0.10 in 0.88 in (1978)
Month to date precipitation 0.89  
Year to date precipitation 0.89  
Snow  
Snow 0.00 in - - ()
Month to date snowfall  
Since 1 July snowfall  
Snow Depth -    
Sea Level Pressure  
Sea Level Pressure 30.41 in    
Wind  
Wind Speed 2 mph (West)    
Max Wind Speed 16 mph    
Max Gust Speed 22 mph    
Visibility 10 miles    
Events      
T = Trace of Precipitation, MM = Missing Value Source: NWS Daily Summary

Daily Weather History Graph

Daily Weather History Graph

Search for Another Location

Airport:

Trip Planner

Search our weather history database for the weather conditions in past years. The results will help you decide how hot, cold, wet, or windy it might be!

Date:

Astronomy

Jan. 09, 2013 Rise Set
Actual Time 7:36 AM EST 5:23 PM EST
Civil Twilight 7:07 AM EST 5:52 PM EST
Nautical Twilight 6:35 AM EST 6:24 PM EST
Astronomical Twilight 6:04 AM EST 6:55 PM EST
Moon 5:14 AM EST (1/9) 3:23 PM EST (1/9)
Length of Visible Light 10h 44m
Length of Day
9h 47m
Waning Crescent, 6% of the Moon is Illuminated
Jan 9
Waning Crescent
Jan 11
New
Jan 18
First Quarter
Jan 26
Full
Feb 3
Last Quarter

Hourly Weather History & Observations

Time (EST) Temp. Windchill Dew Point Humidity Pressure Visibility Wind Dir Wind Speed Gust Speed Precip Events Conditions
12:15 AM 33.8 °F - 26.6 °F 75% 30.38 in 10.0 mi Calm Calm - N/A   Clear
12:55 AM 30.2 °F - 26.6 °F 86% 30.37 in 10.0 mi Calm Calm - N/A   Overcast
1:15 AM 30.2 °F - 26.6 °F 86% 30.37 in 10.0 mi Calm Calm - N/A   Mostly Cloudy
1:35 AM 30.2 °F - 28.4 °F 93% 30.37 in 10.0 mi Calm Calm - N/A   Scattered Clouds
1:55 AM 33.8 °F - 28.4 °F 81% 30.38 in 10.0 mi Calm Calm - N/A   Mostly Cloudy
2:15 AM 33.8 °F - 28.4 °F 81% 30.38 in 10.0 mi Calm Calm - N/A   Scattered Clouds
2:35 AM 33.8 °F - 28.4 °F 81% 30.37 in 10.0 mi Calm Calm - N/A   Clear
2:55 AM 33.8 °F - 26.6 °F 75% 30.38 in 10.0 mi Calm Calm - N/A   Clear
3:15 AM 32.0 °F - 28.4 °F 87% 30.38 in 10.0 mi Calm Calm - N/A   Clear
3:35 AM 30.2 °F - 26.6 °F 86% 30.39 in 10.0 mi Calm Calm - N/A   Clear
3:55 AM 30.2 °F - 26.6 °F 86% 30.38 in 10.0 mi Calm Calm - N/A   Scattered Clouds
4:15 AM 32.0 °F - 28.4 °F 87% 30.38 in 10.0 mi Calm Calm - N/A   Scattered Clouds
4:35 AM 30.2 °F - 28.4 °F 93% 30.38 in 10.0 mi Calm Calm - N/A   Clear
4:55 AM 30.2 °F - 26.6 °F 86% 30.37 in 10.0 mi Calm Calm - N/A   Clear
5:15 AM 32.0 °F - 28.4 °F 87% 30.37 in 10.0 mi Calm Calm - N/A   Clear
5:35 AM 32.0 °F - 28.4 °F 87% 30.37 in 10.0 mi Calm Calm - N/A   Scattered Clouds
5:55 AM 32.0 °F - 30.2 °F 93% 30.37 in 10.0 mi Calm Calm - N/A   Scattered Clouds
6:15 AM 30.2 °F - 28.4 °F 93% 30.38 in 10.0 mi Calm Calm - N/A   Scattered Clouds
6:35 AM 32.0 °F - 30.2 °F 93% 30.38 in 10.0 mi Calm Calm - N/A   Mostly Cloudy
6:55 AM 30.2 °F - 30.2 °F 100% 30.39 in 10.0 mi Calm Calm - N/A   Mostly Cloudy
7:15 AM 30.2 °F - 30.2 °F 100% 30.39 in 7.0 mi Calm Calm - N/A   Scattered Clouds
7:35 AM 33.8 °F - 32.0 °F 93% 30.40 in 7.0 mi Calm Calm - N/A   Scattered Clouds
8:15 AM 33.8 °F - 33.8 °F 100% 30.41 in 7.0 mi Calm Calm - N/A   Overcast
8:35 AM 33.8 °F - 33.8 °F 100% 30.41 in 7.0 mi Calm Calm - N/A   Mostly Cloudy
8:55 AM 37.4 °F - 35.6 °F 93% 30.42 in 10.0 mi Calm Calm - N/A   Mostly Cloudy
9:15 AM 39.2 °F - 37.4 °F 93% 30.43 in 10.0 mi Calm Calm - N/A   Overcast
9:35 AM 42.8 °F - 39.2 °F 87% 30.43 in 10.0 mi Calm Calm - N/A   Overcast
9:55 AM 42.8 °F - 37.4 °F 81% 30.43 in 10.0 mi Calm Calm - N/A   Overcast
10:15 AM 44.6 °F - 39.2 °F 81% 30.43 in 10.0 mi Calm Calm - N/A   Overcast
10:35 AM 46.4 °F - 39.2 °F 76% 30.43 in 10.0 mi Calm Calm - N/A   Scattered Clouds
10:55 AM 46.4 °F - 39.2 °F 76% 30.42 in 10.0 mi Calm Calm - N/A   Clear
11:15 AM 46.4 °F - 41.0 °F 81% 30.41 in 10.0 mi Calm Calm - N/A   Clear
11:35 AM 48.2 °F - 41.0 °F 76% 30.40 in 10.0 mi Calm Calm - N/A   Clear
11:55 AM 51.8 °F - 41.0 °F 67% 30.40 in 10.0 mi Calm Calm - N/A   Scattered Clouds
12:15 PM 53.6 °F - 41.0 °F 62% 30.39 in 10.0 mi SSW 4.6 mph - N/A   Scattered Clouds
12:55 PM 55.4 °F - 42.8 °F 63% 30.38 in 10.0 mi SW 4.6 mph - N/A   Mostly Cloudy
1:15 PM 55.4 °F - 42.8 °F 63% 30.38 in 10.0 mi SW 3.5 mph - N/A   Overcast
1:35 PM 55.4 °F - 42.8 °F 63% 30.38 in 10.0 mi Calm Calm - N/A   Overcast
1:55 PM 55.4 °F - 42.8 °F 63% 30.39 in 10.0 mi North 4.6 mph - N/A   Overcast
2:15 PM 55.4 °F - 42.8 °F 63% 30.40 in 10.0 mi NW 3.5 mph - N/A   Overcast
2:35 PM 55.4 °F - 48.2 °F 77% 30.40 in 10.0 mi West 11.5 mph - N/A   Light Drizzle
2:55 PM 55.4 °F - 48.2 °F 77% 30.41 in 10.0 mi West 8.1 mph - N/A   Overcast
3:15 PM 53.6 °F - 48.2 °F 82% 30.40 in 10.0 mi West 9.2 mph - N/A   Overcast
3:35 PM 55.4 °F - 48.2 °F 77% 30.40 in 10.0 mi West 6.9 mph - N/A   Mostly Cloudy
3:55 PM 55.4 °F - 48.2 °F 77% 30.40 in 10.0 mi WSW 8.1 mph - N/A   Overcast
4:15 PM 55.4 °F - 48.2 °F 77% 30.39 in 10.0 mi WNW 5.8 mph - N/A   Mostly Cloudy
4:35 PM 55.4 °F - 48.2 °F 77% 30.39 in 10.0 mi WNW 4.6 mph - N/A   Scattered Clouds
4:55 PM 53.6 °F - 48.2 °F 82% 30.39 in 10.0 mi WNW 5.8 mph - N/A   Clear
5:15 PM 51.8 °F - 48.2 °F 88% 30.39 in 10.0 mi West 4.6 mph - N/A   Clear
5:35 PM 51.8 °F - 48.2 °F 88% 30.40 in 10.0 mi West 5.8 mph - N/A   Clear
5:55 PM 51.8 °F - 48.2 °F 88% 30.40 in 10.0 mi WSW 5.8 mph - N/A   Clear
6:15 PM 48.2 °F - 46.4 °F 93% 30.40 in 10.0 mi WSW 3.5 mph - N/A   Clear
6:35 PM 48.2 °F - 46.4 °F 93% 30.41 in 10.0 mi SSW 3.5 mph - N/A   Clear
6:55 PM 48.2 °F - 46.4 °F 93% 30.42 in 10.0 mi Calm Calm - N/A   Scattered Clouds
7:15 PM 46.4 °F 45.2 °F 46.4 °F 100% 30.43 in 10.0 mi SW 3.5 mph - N/A   Mostly Cloudy
7:35 PM 48.2 °F - 48.2 °F 100% 30.43 in 10.0 mi SW 3.5 mph - N/A   Mostly Cloudy
7:55 PM 51.8 °F - 51.8 °F 100% 30.44 in 10.0 mi West 10.4 mph - N/A   Overcast
8:15 PM 51.8 °F - 48.2 °F 88% 30.45 in 10.0 mi SW 3.5 mph - N/A   Overcast
8:35 PM 53.6 °F - 50.0 °F 88% 30.45 in 10.0 mi WNW 9.2 mph - N/A   Overcast
8:55 PM 53.6 °F - 48.2 °F 82% 30.45 in 10.0 mi West 8.1 mph - N/A   Overcast
9:15 PM 53.6 °F - 48.2 °F 82% 30.45 in 10.0 mi WNW 9.2 mph - N/A   Overcast
9:35 PM 53.6 °F - 48.2 °F 82% 30.45 in 10.0 mi NW 11.5 mph - N/A   Overcast
9:55 PM 53.6 °F - 48.2 °F 82% 30.45 in 10.0 mi NW 13.8 mph - N/A   Overcast
10:15 PM 53.6 °F - 48.2 °F 82% 30.46 in 10.0 mi WNW 10.4 mph - N/A   Overcast
10:35 PM 51.8 °F - 48.2 °F 88% 30.47 in 10.0 mi WNW 11.5 mph - N/A   Overcast
10:55 PM 51.8 °F - 46.4 °F 82% 30.47 in 10.0 mi WNW 16.1 mph 21.9 mph N/A   Overcast
11:15 PM 51.8 °F - 46.4 °F 82% 30.46 in 10.0 mi WNW 13.8 mph 18.4 mph N/A   Scattered Clouds
11:35 PM 50.0 °F - 44.6 °F 82% 30.47 in 10.0 mi WNW 11.5 mph - N/A   Scattered Clouds
11:55 PM 48.2 °F - 42.8 °F 82% 30.47 in 10.0 mi NW 9.2 mph - N/A   Clear